Theta_e
319 323 325 323 325 325 325 328 327 322 322 323 319 316 315 315 315 315 316 318 322 321 322 326 328 329 328 327 326 325 326 326 325 325 325 324 324 323 323 322 322 322 320 319
321 321 316 318 323 326 327 327 322 319 320 321 318 316 315 314 314 315 314 315 315 316 318 318 319 326 327 325 324 323 323 323 323 322 321 321 320 320 320 320 319 318 317 317
320 317 316 322 325 327 325 326 322 321 318 317 318 318 314 312 312 312 311 311 312 314 314 314 317 317 318 318 319 321 322 321 321 321 320 319 318 318 318 318 316 316 315 314
315 316 320 322 320 321 324 321 322 320 323 322 317 321 314 311 310 310 312 312 313 311 309 308 308 309 311 312 313 314 315 316 318 319 319 318 317 316 315 315 316 315 315 314
313 315 317 317 317 318 320 320 321 321 319 319 318 319 314 310 310 310 312 312 310 308 307 307 307 307 307 307 308 309 309 310 311 312 313 313 313 314 316 315 315 314 313 313
313 312 313 315 315 317 317 317 318 319 316 319 316 314 313 311 310 309 312 311 309 308 307 307 306 306 306 306 306 306 306 306 307 308 309 309 310 310 310 311 310 312 313 312
313 312 311 311 316 316 316 316 317 317 315 318 312 313 313 310 308 310 310 309 307 307 306 305 305 305 305 305 305 305 305 304 304 305 305 305 304 304 304 304 304 304 304 304
315 315 310 309 311 314 314 314 318 318 318 314 311 313 312 309 309 310 309 308 307 307 306 304 304 304 304 304 303 303 303 303 303 303 303 303 303 302 302 301 301 300 301 301
317 316 309 309 310 311 312 314 311 311 309 311 309 310 309 307 307 308 309 307 306 306 306 304 303 303 302 302 302 301 300 300 300 300 300 300 300 300 300 300 300 300 299 299
312 314 309 310 309 311 313 311 311 312 312 311 309 310 311 309 308 306 306 307 307 306 306 304 303 302 301 300 299 299 298 297 297 297 297 297 297 297 297 297 297 296 296 296
308 312 310 310 312 313 312 313 312 312 312 310 310 308 306 310 309 307 307 308 307 305 305 304 303 301 299 299 299 298 298 297 295 295 295 295 295 295 295 295 295 295 295 295
307 309 311 311 307 305 307 311 312 309 309 310 308 307 304 308 309 307 307 308 306 306 305 303 302 300 298 298 298 298 298 295 294 294 294 294 294 294 294 294 294 294 294 294
307 305 304 306 306 305 307 308 311 310 308 310 308 305 305 306 307 307 307 307 305 305 304 303 301 299 298 298 298 298 296 294 294 294 294 294 294 294 294 294 294 294 294 294
306 306 305 307 306 306 307 307 309 310 310 309 308 307 308 306 306 306 308 307 305 304 303 302 300 298 298 298 298 297 294 294 294 294 294 294 294 294 294 294 294 293 293 293
304 301 304 305 304 305 306 306 308 310 309 308 307 308 306 306 306 307 307 305 304 303 302 301 299 298 297 298 298 296 294 294 294 294 294 294 294 294 294 294 293 293 293 292
305 300 302 299 302 301 302 304 304 307 309 307 306 305 304 306 308 307 307 305 304 303 301 300 299 297 297 297 297 295 294 294 294 295 295 294 294 293 293 293 293 293 292 292
300 300 299 298 299 298 299 302 303 304 306 309 309 307 302 302 303 305 306 306 305 303 301 300 299 297 297 297 296 294 294 295 295 295 295 295 294 293 293 292 292 292 292 292
298 299 296 296 293 297 301 299 301 303 304 306 305 304 303 304 305 305 306 305 303 302 301 299 298 297 296 295 294 294 294 295 295 295 295 295 294 294 293 292 292 292 291 291
298 298 294 294 288 297 301 299 299 302 302 303 305 303 304 305 303 303 303 302 301 301 299 298 297 296 296 295 294 294 294 295 295 295 295 294 294 294 293 293 292 292 291 291
298 299 295 294 292 294 298 298 298 297 299 298 303 304 301 301 301 302 304 303 303 300 298 297 296 295 295 295 294 294 295 295 296 295 294 294 294 293 293 292 292 291 290 290
302 298 294 286 290 294 297 297 299 295 300 300 301 303 303 302 304 303 303 302 301 299 298 296 295 295 295 295 295 295 296 296 294 293 293 293 293 292 291 291 291 290 289 289
303 303 301 290 290 300 297 296 296 297 298 300 301 302 304 304 304 303 300 299 298 297 296 296 295 294 294 295 295 296 296 294 293 293 293 292 291 291 290 289 289 289 288 288
300 298 298 301 300 299 299 297 300 299 298 301 302 302 303 304 304 302 298 297 297 296 296 295 294 294 295 296 295 295 294 293 293 292 291 291 291 290 289 287 287 287 286 286
292 294 295 298 296 300 301 301 300 300 299 300 301 302 302 302 300 298 297 296 296 296 295 295 294 295 296 295 294 294 292 291 291 290 290 290 289 289 288 287 286 285 285 285
295 294 291 294 296 299 300 302 303 301 300 299 299 300 300 299 298 297 296 296 296 295 295 294 295 295 295 293 293 291 290 290 290 290 289 289 288 286 286 286 285 284 284 283
292 293 299 300 301 302 302 303 303 303 302 300 298 298 297 297 297 297 297 296 295 295 295 295 295 295 294 292 292 290 290 290 289 289 288 287 286 286 285 285 286 283 282 281
Wind_Speed
2 3 4 7 4 2 11 8 9 7 2 5 4 7 6 10 10 9 13 16 9 10 9 8 9 8 6 8 10 13 13 14 15 15 16 17 19 20 20 18 20 22 22 21
4 4 2 2 1 3 13 13 7 6 2 4 3 5 6 9 8 13 14 12 10 9 9 9 9 9 9 8 9 10 12 14 17 16 17 18 20 22 21 20 21 20 20 21
6 1 2 3 4 7 4 14 9 8 8 5 6 2 3 4 10 13 14 11 9 8 6 5 5 7 9 11 11 12 13 14 16 18 18 18 19 21 23 23 23 19 19 19
6 5 4 8 6 2 5 4 11 15 5 4 0 3 4 3 6 10 11 12 15 22 26 24 21 19 15 11 5 3 6 9 13 15 16 15 19 22 22 22 21 22 20 21
0 7 7 8 3 5 5 7 12 9 4 4 2 3 3 7 3 5 10 18 20 20 19 18 16 15 14 12 11 10 8 5 2 3 7 11 13 15 18 20 22 23 24 24
6 3 5 3 4 10 9 14 13 3 4 1 6 3 5 6 7 6 13 16 18 16 14 13 12 11 11 9 7 7 7 7 8 9 9 10 12 15 18 20 22 23 23 25
4 7 1 2 11 8 5 6 3 2 0 3 3 3 6 6 11 14 18 19 15 13 13 13 10 8 7 5 4 5 6 8 9 11 12 14 15 16 18 20 22 25 26 27
3 2 5 5 2 3 5 3 3 5 4 3 1 5 4 6 19 25 24 18 15 13 11 9 8 6 4 4 5 6 7 9 10 11 12 14 15 16 18 19 20 22 23 25
4 3 2 4 5 3 2 2 2 4 2 3 4 2 4 5 7 18 23 19 14 12 9 6 4 3 2 3 4 6 7 9 10 11 13 14 17 19 21 22 23 24 25 26
5 5 3 4 1 3 3 2 3 1 3 3 3 4 4 15 15 12 16 21 16 13 11 4 3 2 2 2 3 5 9 13 14 13 15 16 18 20 22 24 26 28 29 30
3 3 2 1 6 6 2 2 3 1 3 4 3 5 6 23 20 18 19 24 17 16 11 7 5 4 4 2 1 4 11 18 16 15 16 17 18 20 22 24 26 28 30 31
3 4 3 4 1 1 2 4 5 3 4 2 2 5 5 16 24 26 23 26 18 15 11 8 6 5 3 2 3 8 14 16 15 16 16 18 20 22 23 24 25 27 30 31
2 1 3 5 3 1 5 5 4 1 2 5 5 5 6 8 15 24 28 25 21 17 14 11 8 7 6 5 6 11 15 15 16 19 22 23 24 26 28 29 30 31 33 34
2 2 4 6 2 1 5 6 6 4 2 3 5 2 2 6 10 20 28 24 25 20 17 12 10 10 8 8 10 13 15 16 19 21 23 25 27 29 31 33 33 34 34 36
3 4 2 1 3 3 2 4 7 12 6 7 4 9 6 10 13 27 29 26 24 20 17 13 11 11 11 12 13 15 17 19 22 24 25 27 29 32 33 34 35 36 35 35
1 2 2 3 3 4 3 7 7 10 10 8 5 6 5 10 18 18 24 26 24 21 17 13 12 12 12 13 14 17 19 22 26 28 30 31 33 34 36 37 38 38 39 39
4 5 3 4 4 5 7 12 16 7 8 12 14 12 6 6 12 22 28 30 25 20 16 13 13 12 12 13 16 19 23 26 29 31 34 35 38 39 39 40 40 40 42 43
5 5 3 3 3 2 5 2 3 16 10 18 8 8 14 16 18 15 27 26 21 16 14 14 13 11 12 15 18 20 25 29 32 35 38 39 41 42 42 43 43 43 45 46
3 5 2 4 3 8 8 7 8 8 10 21 23 9 15 19 12 17 22 20 16 15 16 14 10 12 14 18 19 22 29 33 35 38 41 41 43 45 45 46 47 46 48 49
2 4 4 2 5 7 6 1 2 6 8 14 30 19 16 18 5 10 25 26 20 18 16 12 11 14 16 17 21 26 32 36 39 41 41 43 44 46 47 47 48 48 49 50
3 1 6 3 3 8 12 8 8 6 7 4 27 29 26 12 24 7 8 17 17 17 13 11 13 14 15 18 24 29 33 37 37 39 41 43 44 44 45 47 47 49 50 51
11 9 5 3 2 10 13 8 9 6 4 3 11 22 37 34 18 17 11 11 16 17 15 13 15 16 18 21 26 31 34 34 35 37 40 41 42 44 46 47 49 50 51 53
3 7 6 11 8 6 29 5 18 2 5 7 14 18 23 30 25 20 17 15 16 15 14 15 17 19 20 23 25 30 30 31 33 36 39 42 44 46 47 49 50 51 50 50
5 6 3 2 6 17 18 27 19 17 8 11 15 18 20 25 23 21 17 16 16 16 17 18 19 19 23 23 23 24 27 30 34 38 40 43 47 49 49 49 48 46 45 46
6 11 6 6 8 14 18 26 30 29 20 17 19 20 24 23 20 17 15 15 17 18 18 18 18 22 23 22 21 21 26 31 35 39 42 45 47 47 48 47 44 41 39 33
11 7 8 8 15 18 16 26 24 35 35 34 25 25 27 26 23 19 17 16 19 18 17 18 19 22 21 21 21 25 28 31 36 41 42 43 43 43 43 44 47 37 31 28
Wind_Direction
84 116 138 173 176 320 149 157 130 112 147 73 11 79 51 69 64 66 66 87 128 114 121 177 196 204 221 231 251 269 272 276 281 290 290 289 293 293 295 297 299 300 296 294
85 84 29 306 147 247 174 137 111 74 100 104 139 60 69 62 69 81 88 88 98 117 135 130 138 155 188 225 249 267 276 278 282 281 284 290 292 294 295 299 305 302 299 297
86 111 216 181 126 144 112 158 159 137 115 46 154 106 101 51 82 79 77 83 90 96 100 106 209 233 244 251 252 248 250 256 276 286 292 292 292 295 299 306 311 312 309 305
56 341 152 112 80 15 104 14 125 137 141 160 333 191 188 129 81 68 77 92 102 104 102 99 98 100 97 100 117 210 258 266 265 265 269 284 291 294 301 306 309 309 307 302
17 32 62 66 31 19 85 112 114 107 87 105 237 135 226 145 117 110 108 117 114 109 103 99 96 93 88 85 80 73 67 56 11 308 283 281 288 291 296 300 303 305 305 304
75 15 39 72 75 67 111 86 75 119 118 9 217 149 215 184 173 149 140 134 126 118 109 105 99 93 88 82 73 59 36 15 2 352 340 330 322 319 316 315 312 310 306 306
71 41 140 100 97 133 145 149 93 90 73 215 134 149 229 174 155 156 157 153 141 130 123 116 109 100 96 86 50 15 1 355 357 356 354 350 346 342 338 335 332 329 326 324
103 137 350 335 62 154 164 194 176 166 181 166 15 223 269 157 152 158 158 156 155 149 136 112 105 97 67 36 11 10 15 20 14 5 359 353 347 344 342 339 336 333 329 327
132 94 310 19 15 8 302 56 2 104 41 102 173 346 1 136 150 161 171 171 165 158 156 130 117 96 73 54 45 34 21 16 5 357 349 344 340 337 333 328 326 323 321 318
167 109 337 332 331 61 111 191 95 338 132 217 227 207 223 188 186 187 188 182 173 175 171 173 177 168 149 117 67 47 32 10 356 345 340 338 335 330 326 325 324 322 320 319
144 96 148 249 203 179 163 238 222 150 186 183 178 249 204 193 189 187 190 188 179 170 187 205 210 213 203 170 91 5 354 356 356 353 350 346 342 336 333 330 328 325 322 321
212 114 133 203 311 101 266 235 194 182 197 222 158 272 338 192 186 180 183 185 177 189 207 222 232 240 223 237 320 340 342 346 348 348 350 348 346 345 342 340 337 332 325 321
167 76 83 356 337 189 220 204 238 184 90 202 144 259 355 144 162 175 175 181 179 192 202 218 235 240 236 267 305 321 330 338 340 345 347 347 347 345 343 341 340 337 333 330
110 96 168 185 160 114 199 211 193 178 165 163 223 267 121 149 159 169 181 184 185 197 208 218 233 235 249 268 288 313 326 330 333 339 339 340 339 338 336 335 334 333 332 330
108 160 108 98 16 4 328 241 204 209 204 193 211 213 193 190 181 183 183 180 189 201 211 222 233 237 258 270 287 312 323 326 327 329 331 332 330 328 327 327 326 326 327 327
30 186 105 311 351 14 281 258 265 248 241 259 252 260 205 183 196 195 198 185 200 207 217 227 235 245 264 283 295 314 321 321 322 324 324 324 322 319 319 320 320 322 321 322
131 132 101 263 332 339 302 229 212 214 215 217 229 221 173 200 199 198 196 201 209 216 222 234 242 253 280 296 306 314 317 318 318 319 319 321 320 317 315 315 315 318 319 318
128 104 95 200 11 302 246 203 234 229 233 220 239 185 190 205 208 203 211 206 212 221 237 245 237 263 296 306 309 309 308 314 315 316 318 319 316 314 315 314 314 315 316 316
8 124 115 147 193 296 286 201 180 180 256 223 227 196 200 212 197 219 204 215 228 237 239 239 242 279 291 299 306 305 309 312 312 318 319 316 315 315 315 314 313 313 312 310
28 52 124 120 160 220 244 164 136 91 292 219 212 205 182 155 185 232 218 224 237 233 229 221 265 273 287 300 302 304 309 311 315 317 315 314 313 313 313 313 312 311 310 310
129 67 164 179 227 282 248 157 140 96 240 266 203 205 180 191 212 182 237 228 222 222 214 254 274 281 291 295 300 305 310 311 314 313 311 312 316 317 316 314 312 312 313 312
171 170 179 120 175 268 166 123 168 230 292 263 203 196 197 205 205 212 193 195 202 209 231 260 270 281 290 301 307 307 307 313 312 313 313 315 316 316 313 312 315 316 317 316
215 185 184 188 205 215 184 187 196 222 267 228 210 199 203 201 202 204 204 207 213 229 246 263 276 284 297 302 303 305 313 312 312 311 311 312 314 315 316 318 318 317 318 318
254 203 219 91 236 239 224 229 238 226 234 224 211 195 187 193 191 195 200 209 225 240 256 267 272 285 298 302 305 309 310 311 310 310 312 314 314 315 317 318 320 321 322 320
193 152 174 267 279 288 256 243 244 233 231 229 216 206 195 194 203 212 213 222 238 250 257 264 281 294 301 305 309 309 310 310 310 310 313 314 315 320 321 322 325 324 320 314
182 185 193 223 209 219 243 250 251 232 233 231 221 214 213 215 221 225 238 255 252 255 266 281 292 298 306 305 311 310 312 309 310 312 315 317 321 324 325 326 326 328 321 313